Tracking 35331 objects as of 14-Sep-2026
HD Live streaming from Space Station
objects crossing your sky now

THORAD AGENA D DEB


THORAD AGENA D DEB is no longer on orbit


NORAD ID: 4348
Int'l Code: 1969-082EB
Launch date: September 30, 1969
Source: United States (US)
Launch site: AIR FORCE WESTERN TEST RANGE (AFWTR)
Decay date: 1990-11-28

Note: This is SATELLITE DEBRIS
Your satellite tracking list
Your tracking list is empty




NASA's NSSDC Master Catalog

Two Line Element Set (TLE):
1 04348U 69082 EB 90332.25898373  .20365283 +18000-5 +36535-1 0  9992
2 04348 070.0851 281.1036 0021994 172.4588 187.6946 16.00952132090620
Source of the keplerian elements: AFSPC